| time (UTC) | temp F | wind direction | speed knots | gust knots | rain 1hr in | rain 24hr in | rain mn in | humidity % | barometer mb |
| 20260507100030 | 53 | 184 | 3.5 | 5.2 | 0.00 | 0.00 | 0.00 | 42 | 1021.9 |
| 20260507094523 | 53 | 225 | 4.3 | 7.0 | 0.00 | 0.00 | 0.00 | 41 | 1021.9 |
| 20260507093028 | 53 | 232 | 5.2 | 7.0 | 0.00 | 0.00 | 0.00 | 42 | 1021.7 |
| 20260507091534 | 52 | 240 | 6.1 | 7.8 | 0.00 | 0.00 | 0.00 | 43 | 1021.8 |
| 20260507090028 | 51 | 243 | 4.3 | 7.0 | 0.00 | 0.00 | 0.00 | 43 | 1021.8 |
| 20260507084538 | 53 | 257 | 3.5 | 5.2 | 0.00 | 0.00 | 0.00 | 41 | 1021.9 |
| 20260507083026 | 54 | 101 | 1.7 | 4.3 | 0.00 | 0.00 | 0.00 | 39 | 1022.0 |
| 20260507081526 | 54 | 151 | 1.7 | 4.3 | 0.00 | 0.00 | 0.00 | 40 | 1022.0 |
| 20260507080028 | 54 | 226 | 2.6 | 5.2 | 0.00 | 0.00 | 0.00 | 39 | 1022.0 |
| 20260507074530 | 55 | 126 | 3.5 | 6.1 | 0.00 | 0.00 | 0.00 | 39 | 1021.9 |
| 20260507073025 | 55 | 185 | 3.5 | 6.1 | 0.00 | 0.00 | 0.00 | 39 | 1021.8 |
| 20260507071524 | 56 | 120 | 0.0 | 4.3 | 0.00 | 0.00 | 0.00 | 38 | 1021.5 |
| 20260507070028 | 56 | 136 | 3.5 | 5.2 | 0.00 | 0.00 | 0.00 | 37 | 1021.5 |
| 20260507064530 | 58 | 272 | 3.5 | 7.8 | 0.00 | 0.00 | 0.00 | 36 | 1021.4 |
| 20260507063030 | 58 | 285 | 3.5 | 8.7 | 0.00 | 0.00 | 0.00 | 35 | 1021.4 |
| 20260507061535 | 58 | 229 | 4.3 | 8.7 | 0.00 | 0.00 | 0.00 | 35 | 1021.2 |
| 20260507060035 | 59 | 252 | 5.2 | 8.7 | 0.00 | 0.00 | 0.00 | 35 | 1021.1 |
| 20260507054537 | 59 | 250 | 5.2 | 8.7 | 0.00 | 0.00 | 0.00 | 34 | 1021.0 |
| 20260507053031 | 59 | 229 | 4.3 | 9.6 | 0.00 | 0.00 | 0.00 | 34 | 1021.0 |
| 20260507051529 | 59 | 240 | 3.5 | 9.6 | 0.00 | 0.00 | 0.00 | 34 | 1021.0 |
| 20260507050049 | 59 | 226 | 5.2 | 8.7 | 0.00 | 0.00 | 0.00 | 34 | 1020.8 |
| 20260507044531 | 60 | 191 | 4.3 | 9.6 | 0.00 | 0.00 | 0.00 | 34 | 1020.7 |
| 20260507043010 | 60 | 205 | 6.1 | 10.4 | 0.00 | 0.00 | 0.00 | 33 | 1020.6 |
| 20260507041515 | 61 | 216 | 3.5 | 8.7 | 0.00 | 0.00 | 0.00 | 33 | 1020.4 |
| 20260507040024 | 61 | 270 | 6.1 | 10.4 | 0.00 | 0.00 | 0.00 | 32 | 1020.2 |
| 20260507034533 | 62 | 240 | 7.8 | 11.3 | 0.00 | 0.00 | 0.00 | 31 | 1020.0 |
| 20260507033031 | 62 | 235 | 5.2 | 12.2 | 0.00 | 0.00 | 0.00 | 31 | 1019.8 |
| 20260507031511 | 63 | 252 | 8.7 | 13.0 | 0.00 | 0.00 | 0.00 | 30 | 1019.6 |
| 20260507030018 | 64 | 299 | 7.8 | 14.8 | 0.00 | 0.00 | 0.00 | 30 | 1019.4 |
| 20260507024527 | 64 | 299 | 7.0 | 13.0 | 0.00 | 0.00 | 0.00 | 29 | 1019.0 |
| 20260507023027 | 65 | 283 | 8.7 | 16.5 | 0.00 | 0.00 | 0.00 | 28 | 1018.7 |
| 20260507021545 | 66 | 298 | 9.6 | 13.9 | 0.00 | 0.00 | 0.00 | 27 | 1018.3 |
| 20260507020022 | 67 | 257 | 0.9 | 10.4 | 0.00 | 0.00 | 0.00 | 26 | 1018.2 |
| 20260507014523 | 68 | 161 | 6.1 | 11.3 | 0.00 | 0.00 | 0.00 | 26 | 1018.2 |
| 20260507013023 | 68 | 90 | 10.4 | 15.6 | 0.00 | 0.00 | 0.00 | 26 | 1018.1 |
| 20260507011532 | 71 | 115 | 7.0 | 12.2 | 0.00 | 0.00 | 0.00 | 23 | 1018.1 |
| 20260507010040 | 72 | 335 | 2.6 | 11.3 | 0.00 | 0.00 | 0.00 | 21 | 1017.7 |
| 20260507004519 | 73 | 335 | 1.7 | 7.8 | 0.00 | 0.00 | 0.00 | 19 | 1017.7 |
| 20260507003022 | 73 | 304 | 2.6 | 13.0 | 0.00 | 0.00 | 0.00 | 20 | 1017.7 |
| 20260507001525 | 73 | 68 | 2.6 | 8.7 | 0.00 | 0.00 | 0.00 | 20 | 1017.8 |
| 20260507000033 | 72 | 234 | 1.7 | 9.6 | 0.00 | 0.00 | 0.00 | 21 | 1017.5 |
| 20260506234528 | 73 | 358 | 1.7 | 7.0 | 0.00 | 0.00 | 0.00 | 20 | 1017.4 |
| 20260506233018 | 73 | 267 | 4.3 | 10.4 | 0.00 | 0.00 | 0.00 | 19 | 1017.4 |
| 20260506231526 | 73 | 336 | 0.9 | 4.3 | 0.00 | 0.00 | 0.00 | 19 | 1017.5 |
| 20260506230026 | 71 | 302 | 3.5 | 10.4 | 0.00 | 0.00 | 0.00 | 20 | 1017.5 |
| 20260506224528 | 71 | 26 | 6.1 | 14.8 | 0.00 | 0.00 | 0.00 | 20 | 1017.7 |
| 20260506223028 | 71 | 143 | 0.9 | 7.8 | 0.00 | 0.00 | 0.00 | 20 | 1017.9 |
| 20260506221522 | 71 | 311 | 2.6 | 8.7 | 0.00 | 0.00 | 0.00 | 21 | 1018.3 |
| 20260506220030 | 70 | 250 | 4.3 | 7.8 | 0.00 | 0.00 | 0.00 | 21 | 1018.5 |
| 20260506214527 | 72 | 210 | 3.5 | 9.6 | 0.00 | 0.00 | 0.00 | 20 | 1018.8 |
| 20260506213030 | 70 | 356 | 6.1 | 12.2 | 0.00 | 0.00 | 0.00 | 21 | 1018.9 |
| 20260506211530 | 68 | 233 | 4.3 | 8.7 | 0.00 | 0.00 | 0.00 | 22 | 1019.1 |
| 20260506210030 | 69 | 136 | 3.5 | 10.4 | 0.00 | 0.00 | 0.00 | 22 | 1019.2 |
| 20260506204541 | 68 | 345 | 2.6 | 9.6 | 0.00 | 0.00 | 0.00 | 22 | 1019.3 |
| 20260506203029 | 68 | 342 | 9.6 | 14.8 | 0.00 | 0.00 | 0.00 | 22 | 1019.6 |
| 20260506201515 | 69 | 11 | 4.3 | 8.7 | 0.00 | 0.00 | 0.00 | 22 | 1019.8 |
| 20260506200023 | 68 | 274 | 3.5 | 9.6 | 0.00 | 0.00 | 0.00 | 23 | 1019.9 |
| 20260506194524 | 67 | 353 | 3.5 | 12.2 | 0.00 | 0.00 | 0.00 | 24 | 1019.9 |
| 20260506193027 | 66 | 355 | 4.3 | 12.2 | 0.00 | 0.00 | 0.00 | 24 | 1020.0 |
| 20260506191529 | 66 | 354 | 7.8 | 13.9 | 0.00 | 0.00 | 0.00 | 24 | 1020.1 |
| 20260506190013 | 66 | 332 | 4.3 | 8.7 | 0.00 | 0.00 | 0.00 | 23 | 1020.1 |
| 20260506184521 | 66 | 118 | 0.9 | 7.8 | 0.00 | 0.00 | 0.00 | 24 | 1020.3 |
| 20260506183022 | 64 | 237 | 3.5 | 7.0 | 0.00 | 0.00 | 0.00 | 24 | 1020.3 |
| 20260506181528 | 64 | 245 | 4.3 | 10.4 | 0.00 | 0.00 | 0.00 | 25 | 1020.4 |
| 20260506180028 | 63 | 348 | 1.7 | 8.7 | 0.00 | 0.00 | 0.00 | 26 | 1020.5 |
| 20260506174515 | 62 | 11 | 0.9 | 6.1 | 0.00 | 0.00 | 0.00 | 28 | 1020.6 |
| 20260506173022 | 62 | 309 | 4.3 | 13.0 | 0.00 | 0.00 | 0.00 | 28 | 1020.5 |
| 20260506171538 | 61 | 331 | 5.2 | 7.8 | 0.00 | 0.00 | 0.00 | 29 | 1020.4 |
| 20260506170027 | 60 | 323 | 0.9 | 5.2 | 0.00 | 0.00 | 0.00 | 31 | 1020.5 |
| 20260506164530 | 59 | 206 | 2.6 | 7.0 | 0.00 | 0.00 | 0.00 | 32 | 1020.3 |
| 20260506163020 | 59 | 346 | 1.7 | 6.1 | 0.00 | 0.00 | 0.00 | 30 | 1020.2 |
| 20260506161529 | 59 | 323 | 3.5 | 7.8 | 0.00 | 0.00 | 0.00 | 31 | 1020.1 |
| 20260506160040 | 58 | 338 | 4.3 | 7.8 | 0.00 | 0.00 | 0.00 | 32 | 1020.1 |
| 20260506154532 | 57 | 21 | 2.6 | 6.1 | 0.00 | 0.00 | 0.00 | 34 | 1019.9 |
| 20260506153030 | 57 | 26 | 0.0 | 3.5 | 0.00 | 0.00 | 0.00 | 37 | 1019.9 |
| 20260506151530 | 56 | 335 | 2.6 | 6.1 | 0.00 | 0.00 | 0.00 | 36 | 1020.1 |
| 20260506150031 | 56 | 53 | 0.0 | 1.7 | 0.00 | 0.00 | 0.00 | 38 | 1019.9 |
| 20260506144525 | 55 | 15 | 1.7 | 3.5 | 0.00 | 0.00 | 0.00 | 38 | 1019.9 |
| 20260506143041 | 54 | 307 | 0.0 | 0.9 | 0.00 | 0.00 | 0.00 | 40 | 1019.8 |
| 20260506141529 | 52 | 233 | 0.0 | 1.7 | 0.00 | 0.00 | 0.00 | 42 | 1019.8 |
| 20260506140032 | 49 | 123 | 0.9 | 2.6 | 0.00 | 0.00 | 0.00 | 47 | 1019.6 |
| 20260506134527 | 46 | 240 | 2.6 | 3.5 | 0.00 | 0.00 | 0.00 | 50 | 1019.5 |
| 20260506133028 | 45 | 243 | 2.6 | 4.3 | 0.00 | 0.00 | 0.00 | 51 | 1019.2 |
| 20260506131530 | 46 | 225 | 3.5 | 4.3 | 0.00 | 0.00 | 0.00 | 50 | 1019.2 |
| 20260506130020 | 45 | 234 | 0.9 | 2.6 | 0.00 | 0.00 | 0.00 | 53 | 1018.9 |
| 20260506124523 | 43 | 253 | 1.7 | 4.3 | 0.00 | 0.00 | 0.00 | 55 | 1018.8 |
| 20260506123026 | 42 | 240 | 3.5 | 6.1 | 0.00 | 0.00 | 0.00 | 56 | 1018.5 |
| 20260506121527 | 42 | 256 | 2.6 | 5.2 | 0.00 | 0.00 | 0.00 | 57 | 1018.4 |
| 20260506120014 | 42 | 219 | 0.9 | 4.3 | 0.00 | 0.00 | 0.00 | 56 | 1018.4 |
| 20260506114530 | 44 | 165 | 1.7 | 2.6 | 0.00 | 0.00 | 0.00 | 54 | 1018.4 |
| 20260506113023 | 45 | 244 | 4.3 | 6.1 | 0.00 | 0.00 | 0.00 | 52 | 1018.4 |
| 20260506111525 | 44 | 278 | 2.6 | 7.8 | 0.00 | 0.00 | 0.00 | 53 | 1018.3 |
| 20260506110034 | 44 | 210 | 4.3 | 8.7 | 0.00 | 0.00 | 0.00 | 54 | 1018.1 |
| 20260506104516 | 43 | 252 | 3.5 | 7.8 | 0.00 | 0.00 | 0.00 | 55 | 1018.1 |
| 20260506103020 | 43 | 204 | 2.6 | 6.1 | 0.00 | 0.00 | 0.00 | 54 | 1017.9 |
| 20260506101543 | 44 | 193 | 4.3 | 7.0 | 0.00 | 0.00 | 0.00 | 53 | 1017.9 |